Regional Weather Roundup
Issued by NWS Albany, NY

Home | Current Version | Previous Version | Graphics & Text | Print | Product List | Glossary Off
Versions: 1 2 3 4 5 6 7 8 9 10 11 12 13 14 15 16 17 18 19 20 21 22 23 24 25 26 27

000
ASUS41 KALY 111210
RWRALY

NEW YORK STATE HOURLY WEATHER ROUNDUP
NATIONAL WEATHER SERVICE ALBANY NY
700 AM EST MON DEC 11 2017

NOTE: "FAIR" INDICATES FEW OR NO CLOUDS BELOW 12,000 FEET WITH NO
SIGNIFICANT WEATHER AND/OR NO OBSTRUCTIONS TO VISIBILITY.

NYZ032-033-038>043-046>054-057>066-NYZ062>081-082-084-111300-
EAST


CITY           SKY/WX    TMP DP  RH WIND       PRES   REMARKS
ALBANY         CLOUDY    29  21  72 S6        29.94R WCI  23
GLENS FALLS    CLEAR     29  20  69 SW9       29.91R WCI  20
POUGHKEEPSIE   CLOUDY    32  21  64 S5        29.97S WCI  27
NEWBURGH       CLOUDY    30  25  80 W7        29.98R WCI  23
MONTGOMERY     MOCLDY    29  21  72 S7        29.96S WCI  22
WHITE PLAINS   CLOUDY    32  22  66 W12       29.98R WCI  23
ISLIP          FLURRIES  32  30  92 W9        30.02R WCI  24
NEW YORK CITY  MOCLDY    35  24  64 SW9       30.01S WCI  28
CENTRAL PARK   CLOUDY    34  25  69 MISG      30.03R
$$

NYZ005>009-017-018-044>046-055-056-111300-
CENTRAL


CITY           SKY/WX    TMP DP  RH WIND       PRES   REMARKS
FULTON         FLURRIES  26  21  81 NW8       29.97R WCI  18
SYRACUSE       LGT SNOW  27  26  96 NW9       29.95R FOG     WCI  18
ROME           LGT SNOW  27  26  96 W7        29.95R FOG     WCI  19
ELMIRA         LGT SNOW  29  23  78 SW5       29.95R WCI  24
BINGHAMTON     CLOUDY    23  19  85 W9        29.89R WCI  13
$$

NYZ026>034-041>043-087-111300-
NORTH


CITY           SKY/WX    TMP DP  RH WIND       PRES   REMARKS
WATERTOWN      CLOUDY    19  15  84 N8        30.00R WCI   9
FORT DRUM      NOT AVBL
OGDENSBURG     FAIR      13   8  78 NW8       30.01R WCI   2
MASSENA        CLEAR     13   8  81 NW7       30.02R WCI   3
SARANAC LAKE   CLOUDY    15  13  91 W3        29.82R
PLATTSBURGH    CLOUDY    21  15  78 N12       29.94R WCI   9
$$

NYZ001>004-010>016-019>021-085-111300-
WEST


CITY           SKY/WX    TMP DP  RH WIND       PRES   REMARKS
NIAGARA FALLS  FLURRIES  27  19  72 N8        29.99R WCI  19
BUFFALO        FLURRIES  25  21  85 NW8       29.99R WCI  16
DUNKIRK        FLURRIES  29  19  66 NW8       30.00R WCI  21
JAMESTOWN      FLURRIES  24  21  88 NW6       29.94R WCI  17
WELLSVILLE     CLOUDY    26  20  77 W7        29.90R WCI  18
ROCHESTER      CLOUDY    27  23  85 N6        29.98R WCI  20
PENN YAN       CLOUDY    28  22  78 W8        29.95R WCI  20
$$

             KEY
       WCI = WIND CHILL INDEX
       VSB = VISIBILITY
       HX  = HEAT INDEX
$$




USA.gov is the U.S. government's official web portal to all federal, state and local government web resources and services.